Other Surface Observations
Issued by NWS

Home | Current Version | Previous Version | Text Only | Print | Product List | Glossary On
Versions: 1 2 3 4 5 6 7 8 9 10 11 12 13 14 15 16 17 18 19 20 21 22 23 24 25 26 27 28 29 30 31 32 33 34 35 36 37 38 39 40 41 42 43 44 45 46 47 48 49 50
876
SXUS52 KTAE 271319
OSOTAE
OSOTAE
North Florida/South Alabama/Southwest Georgia Weather Roundup
National Weather Service Tallahassee Florida
900 AM EDT SAT AUG 27 2016

Note: "fair" indicates few or no clouds below 12,000 feet with no
significant weather and/or obstructions to visibility.

!FLZ017-115-028-034-025-271400
...North Florida...

CITY           SKY/WX    TMP DP  RH WIND       PRES   REMARKS
TALLAHASSEE    MOSUNNY   80  72  76 E6        30.03R
APALACHICOLA   SUNNY     79  76  90 NE7       30.00R
PERRY          MOSUNNY   78  71  80 E5        30.04R
CROSS CITY     CLOUDY    79  72  78 E7        30.03R
JACKSONVILLE   LGT RAIN  76  74  93 NE3       30.03R
$$

!FLZ112-006-005-002-011-271400
...Florida Panhandle...

CITY           SKY/WX    TMP DP  RH WIND       PRES   REMARKS
MARIANNA       SUNNY     76  73  91 NE7       30.03R
BONIFAY        FAIR      76  72  87 NE5       30.04S
PANAMA CITY NW FAIR      79  72  79 NE7       30.00S
TYNDALL AFB    MOSUNNY   78  72  82 NE6       30.01R
TYND DRONE APT FAIR      77  73  87 NE10      30.00S
DE FUNIAK SPR  FAIR      75  71  86 NE7       30.03S
EGLIN AFB      MOSUNNY   80  71  74 NE7       30.00S
DESTIN         SUNNY     83  75  77 NE7       30.00S HX  90
HURLBURT       MOSUNNY   79  71  77 NE9       29.99R
CRESTVIEW      SUNNY     76  71  85 E6        30.03S
PENSACOLA      MOSUNNY   79  73  82 E7        30.01R
$$

!ALZ063-066-271400
...South Alabama...

CITY           SKY/WX    TMP DP  RH WIND       PRES   REMARKS
DOTHAN         SUNNY     76  74  93 NE5       30.09R
OZARK CAIRNS   SUNNY     76  72  88 NE6       30.05S
FT RUCKER HELI SUNNY     77  71  82 NE5       30.05R
RUCKER HELI 3  NOT AVBL
RUCKER HELI 2  FAIR      77  70  79 NE5       30.05R
FLORALA APT    SUNNY     76  70  82 E6        30.05S
ANDALUSIA      SUNNY     80  71  74 E7        30.04S
TROY           MOSUNNY   75  72  90 NE3       30.08R
EUFALA         FAIR      79  71  76 NE3       30.07R
MOBILE         MOSUNNY   78  72  81 NE8       30.02R
$$

!GAZ120>161-271400
...Southwest and South Central Georgia...

CITY           SKY/WX    TMP DP  RH WIND       PRES   REMARKS
THOMASVILLE    FAIR      77  73  88 E6        30.06R
BAINBRIDGE     SUNNY     77  70  78 CALM      30.04S
MOODY AFB      SUNNY     74  68  81 NE7       30.04S
VALDOSTA       MOSUNNY   75  71  87 VRB5      30.05R
MOULTRIE       SUNNY     75  70  83 E6        30.07R
BLAKELY        SUNNY     77  72  83 CALM      30.06S
ALBANY         SUNNY     76  69  79 E7        30.08R
TIFTON         FAIR      73  71  91 E3        30.06S
FITZGERALD       N/A     78  74  88 E5        30.10R
CORDELE        FAIR      77  70  81 CALM      30.09R
AMERICUS       FAIR      73  70  88 E3        30.10R
HOMERVILLE     FAIR      77  70  78 E3        30.07R
$$

!GMZ750-755-770-775-271400
...Coastal and Buoy Obs...

STATION/POSITION TIME  TEMP    WIND        PRES    VSBY  WAVE
                       AIR SEA DIR/SP/G                  HT/PER
                 (UTC) (F)     (DEG/KT/KT) (MB)    (MI)  (FT/S)
KEATON BEACH     1300   76      70/  8/ 11 1016.3R
CEDAR KEY        1300   78      70/ 12/ 13 1016.7R
C TOWER          1300   83     100/ 15/ 16 1016.1R
APALACHICOLA BUO 1250   85 86   90/ 16/ 17 1014.3S         3/ 5
PANAMA CITY BUOY 1250   81 85  100/ 19/ 23 1014.5F         3/ 5
MOBILE BUOY      1300   82 86   70/ 12/ 14 1014.5R
ORANGE BCH AL BU 1250   83 86  100/ 10/ 12 1015.4R         3/ 5
$$




USA.gov is the U.S. government's official web portal to all federal, state and local government web resources and services.